COSMOS 2251 DEB, 35663

Orbit data source: Space-Track

COSMOS 2251 DEB, 35663 is space debris in LEO originally from a launch on Wed, 16 Jun 1993 UTC launched from the Plesetsk Missile And Space Complex (PKMTR). The debris from Iridium 33, an American commercial communications satellite, has been tracked extensively since its accidental collision with the defunct Russian satellite Cosmos 2251 in 2009. This event, occurring at high speed in low Earth orbit (LEO), generated thousands of pieces of space debris, significantly increasing the risk of further collisions. The Iridium 33 debris cloud has impacted space traffic management and orbital debris mitigation strategies, making it a subject of ongoing study in space situational awareness.

Loading next visibility...
Identifier
35663, 1993-036APE
Orbit
LEO
Country
Flag of CISCIS
Related business
Manufacturer
Unknown
Mission
Spacecraft
Bus & Motor
Unknown
Mass
Unknown
Launch date (UTC)
1993-06-16 (33 years ago)
Launch vehicle
Unknown
Launch site
Plesetsk Missile And Space Complex (PKMTR)
Object type
Payload
Rocket body
Debris
Shape & HBR
Unknown shape, 0.1 m
Radar Cross Section
Small (<0.1 m²)

Expand to show TLE details & history
Last TLE update: 2 days ago

TLE from 2 days ago
0 COSMOS 2251 DEB
1 35663U 93036APE 26119.60531522  .00006508  00000-0  11449-2 0  9997
2 35663  74.0175 218.4274 0007164 262.9304  97.1051 14.67787760754036
Epoch: 2026-04-29T14:31Z
TLE epoch observation values (Epoch: 2026-04-29T14:31:39.235Z)
Latitude
-0°
Longitude
142.95004°
Altitude
671.416 km
Speed
7.521 km/s
True Right ascension
14h 33m 42s
True Declination
0° 00' 00"
Sunlit
Object was in full shadow at epoch
Visualization orbit readout
Latitude
Unknown
Longitude
Unknown
Altitude
Unknown
Speed
Unknown
Apparent Right ascension
Unknown
Apparent Declination
Unknown
Sunlit
N/A
Visualization observer readout
Local Sidereal Time
03:25:31
Azimuth
Unknown
Elevation
Unknown
Doppler factor
Unknown
Orbital elements
Apogee altitude
670.776 km
Perigee altitude
660.684 km
Semi-major axis
7,043.867 km
Eccentricity
0.00072
Inclination
74.0175°
RAAN
218.4274°
Arg. of periapsis
262.9304°
True anomaly
97.18655°
Mean anomaly
97.1051°
Eccentric anomaly
97.14583°
Mean motion
3.67136 °/min
Orbital period
98.06 mins
BSTAR
0.0011449
Loading maneuver chart data...
Computing Atmospheric mass density...

Documentation

Showing up to 5 results
|